TimeCDT,TemperatureF,Dew PointF,Humidity,Sea Level PressureIn,VisibilityMPH,Wind Direction,Wind SpeedMPH,Gust SpeedMPH,PrecipitationIn,Events,Conditions,WindDirDegrees,DateUTC
12:13 AM,57.2,50.0,77,29.95,10.0,SSE,9.2,-,N/A,,Clear,160,2013-09-27 05:13:00
12:32 AM,57.2,50.0,77,29.94,10.0,SSE,9.2,-,N/A,,Clear,160,2013-09-27 05:32:00
12:52 AM,57.2,50.0,77,29.94,10.0,SSE,9.2,-,N/A,,Clear,160,2013-09-27 05:52:00
1:13 AM,59.0,50.0,72,29.95,10.0,South,8.1,-,N/A,,Clear,170,2013-09-27 06:13:00
1:32 AM,60.8,51.8,72,29.95,10.0,South,8.1,16.1,N/A,,Clear,180,2013-09-27 06:32:00
1:52 AM,60.8,51.8,72,29.95,10.0,SSE,8.1,-,N/A,,Clear,160,2013-09-27 06:52:00
2:13 AM,60.8,51.8,72,29.94,10.0,SSE,11.5,16.1,N/A,,Clear,160,2013-09-27 07:13:00
2:32 AM,60.8,51.8,72,29.94,10.0,South,10.4,16.1,N/A,,Clear,170,2013-09-27 07:32:00
2:52 AM,62.6,51.8,68,29.94,10.0,South,9.2,-,N/A,,Clear,170,2013-09-27 07:52:00
3:13 AM,62.6,51.8,68,29.94,10.0,South,8.1,16.1,N/A,,Clear,170,2013-09-27 08:13:00
3:32 AM,62.6,51.8,68,29.94,10.0,SSE,9.2,-,N/A,,Clear,160,2013-09-27 08:32:00
3:53 AM,62.6,51.8,68,29.94,10.0,South,10.4,-,N/A,,Clear,170,2013-09-27 08:53:00
4:13 AM,62.6,51.8,68,29.93,10.0,South,9.2,-,N/A,,Clear,170,2013-09-27 09:13:00
4:32 AM,62.6,51.8,68,29.93,10.0,South,6.9,-,N/A,,Clear,170,2013-09-27 09:32:00
4:53 AM,60.8,51.8,72,29.93,10.0,South,9.2,-,N/A,,Clear,170,2013-09-27 09:53:00
5:12 AM,62.6,51.8,68,29.93,10.0,South,9.2,17.3,N/A,,Clear,170,2013-09-27 10:12:00
5:33 AM,60.8,51.8,72,29.93,10.0,South,6.9,-,N/A,,Clear,170,2013-09-27 10:33:00
5:53 AM,60.8,53.6,77,29.93,10.0,South,6.9,-,N/A,,Clear,170,2013-09-27 10:53:00
6:12 AM,62.6,53.6,72,29.93,10.0,South,6.9,-,N/A,,Clear,170,2013-09-27 11:12:00
6:33 AM,60.8,53.6,77,29.92,10.0,South,4.6,-,N/A,,Clear,170,2013-09-27 11:33:00
6:52 AM,60.8,53.6,77,29.92,10.0,South,3.5,-,N/A,,Clear,170,2013-09-27 11:52:00
7:12 AM,60.8,53.6,77,29.92,10.0,SSE,4.6,-,N/A,,Clear,160,2013-09-27 12:12:00
7:33 AM,60.8,53.6,77,29.92,10.0,SSE,8.1,-,N/A,,Clear,160,2013-09-27 12:33:00
7:53 AM,60.8,53.6,77,29.92,10.0,SSE,9.2,16.1,N/A,,Clear,160,2013-09-27 12:53:00
8:13 AM,62.6,53.6,72,29.92,10.0,South,12.7,18.4,N/A,,Clear,170,2013-09-27 13:13:00
8:33 AM,62.6,53.6,72,29.92,10.0,South,8.1,16.1,N/A,,Clear,180,2013-09-27 13:33:00
8:52 AM,64.4,55.4,73,29.92,10.0,South,10.4,-,N/A,,Clear,170,2013-09-27 13:52:00
9:13 AM,66.2,55.4,68,29.93,10.0,South,13.8,18.4,N/A,,Scattered Clouds,190,2013-09-27 14:13:00
9:33 AM,64.4,55.4,73,29.93,-9999.0,South,13.8,18.4,N/A,,Overcast,190,2013-09-27 14:33:00
9:52 AM,64.4,55.4,73,29.93,10.0,South,10.4,16.1,N/A,,Mostly Cloudy,180,2013-09-27 14:52:00
10:13 AM,66.2,55.4,68,29.93,10.0,South,9.2,19.6,N/A,,Mostly Cloudy,190,2013-09-27 15:13:00
10:33 AM,66.2,55.4,68,29.93,10.0,South,13.8,21.9,N/A,,Mostly Cloudy,180,2013-09-27 15:33:00
10:52 AM,66.2,55.4,68,29.93,10.0,South,12.7,16.1,N/A,,Mostly Cloudy,180,2013-09-27 15:52:00
11:13 AM,64.4,55.4,73,29.91,10.0,SSE,10.4,-,N/A,Rain,Light Rain,160,2013-09-27 16:13:00
11:33 AM,64.4,55.4,73,29.89,10.0,SSE,9.2,-,N/A,,Scattered Clouds,150,2013-09-27 16:33:00
11:52 AM,64.4,55.4,73,29.89,10.0,SSE,12.7,20.7,N/A,Rain,Light Rain,160,2013-09-27 16:52:00
12:13 PM,68.0,57.2,68,29.89,10.0,South,10.4,23.0,N/A,,Clear,180,2013-09-27 17:13:00
12:33 PM,71.6,57.2,60,29.88,10.0,South,12.7,24.2,N/A,,Clear,170,2013-09-27 17:33:00
12:52 PM,71.6,57.2,60,29.87,10.0,South,12.7,23.0,N/A,,Clear,180,2013-09-27 17:52:00
1:13 PM,73.4,57.2,57,29.86,10.0,SSE,11.5,24.2,N/A,,Clear,160,2013-09-27 18:13:00
1:32 PM,75.2,55.4,50,29.86,10.0,South,17.3,27.6,N/A,,Clear,180,2013-09-27 18:32:00
1:53 PM,75.2,55.4,50,29.85,10.0,South,16.1,26.5,N/A,,Clear,180,2013-09-27 18:53:00
2:13 PM,73.4,55.4,53,29.85,10.0,South,18.4,28.8,N/A,,Clear,170,2013-09-27 19:13:00
2:32 PM,71.6,55.4,57,29.84,10.0,South,17.3,27.6,N/A,,Clear,170,2013-09-27 19:32:00
2:53 PM,71.6,55.4,57,29.85,10.0,South,12.7,23.0,N/A,,Clear,180,2013-09-27 19:53:00
3:13 PM,69.8,55.4,60,29.84,10.0,South,13.8,23.0,N/A,,Clear,170,2013-09-27 20:13:00
3:32 PM,69.8,55.4,60,29.84,10.0,SSE,15.0,20.7,N/A,,Clear,160,2013-09-27 20:32:00
3:53 PM,69.8,55.4,60,29.82,10.0,South,15.0,19.6,N/A,,Scattered Clouds,170,2013-09-27 20:53:00
4:13 PM,66.2,57.2,73,29.82,7.0,SSE,10.4,23.0,N/A,Rain,Light Rain,160,2013-09-27 21:13:00
4:32 PM,68.0,57.2,68,29.81,10.0,SSE,15.0,21.9,N/A,,Clear,160,2013-09-27 21:32:00
4:53 PM,68.0,57.2,68,29.81,10.0,SSE,11.5,19.6,N/A,,Clear,160,2013-09-27 21:53:00
5:13 PM,68.0,57.2,68,29.83,10.0,South,11.5,17.3,N/A,,Scattered Clouds,180,2013-09-27 22:13:00
5:32 PM,66.2,59.0,78,29.83,10.0,South,8.1,-,N/A,,Scattered Clouds,170,2013-09-27 22:32:00
5:53 PM,66.2,59.0,78,29.85,10.0,South,8.1,-,N/A,,Mostly Cloudy,170,2013-09-27 22:53:00
6:12 PM,68.0,57.2,68,29.83,10.0,SSE,11.5,-,N/A,,Scattered Clouds,160,2013-09-27 23:12:00
6:33 PM,69.8,57.2,64,29.82,10.0,SSE,17.3,23.0,N/A,,Clear,160,2013-09-27 23:33:00
6:53 PM,69.8,57.2,64,29.81,10.0,SSE,17.3,20.7,N/A,,Clear,160,2013-09-27 23:53:00
7:12 PM,68.0,57.2,68,29.82,10.0,South,11.5,21.9,N/A,,Clear,180,2013-09-28 00:12:00
7:33 PM,69.8,57.2,64,29.83,10.0,South,9.2,19.6,N/A,,Scattered Clouds,170,2013-09-28 00:33:00
7:53 PM,69.8,57.2,64,29.83,10.0,SSE,15.0,21.9,N/A,,Scattered Clouds,160,2013-09-28 00:53:00
8:12 PM,69.8,57.2,64,29.82,10.0,SSE,13.8,21.9,N/A,,Clear,160,2013-09-28 01:12:00
8:33 PM,69.8,57.2,64,29.82,10.0,South,11.5,19.6,N/A,,Clear,170,2013-09-28 01:33:00
8:53 PM,69.8,57.2,64,29.82,10.0,South,20.7,26.5,N/A,,Clear,170,2013-09-28 01:53:00
9:12 PM,69.8,57.2,64,29.81,10.0,SSE,17.3,25.3,N/A,,Clear,160,2013-09-28 02:12:00
9:33 PM,69.8,59.0,68,29.82,10.0,South,12.7,26.5,N/A,Rain,Light Rain,170,2013-09-28 02:33:00
9:53 PM,69.8,59.0,68,29.81,10.0,South,16.1,21.9,N/A,Rain,Light Rain,170,2013-09-28 02:53:00
10:12 PM,69.8,57.2,64,29.81,10.0,South,19.6,26.5,N/A,,Clear,170,2013-09-28 03:12:00
10:33 PM,69.8,57.2,64,29.81,10.0,South,12.7,20.7,N/A,,Clear,180,2013-09-28 03:33:00
10:53 PM,69.8,57.2,64,29.81,10.0,South,13.8,25.3,N/A,,Clear,180,2013-09-28 03:53:00
11:12 PM,69.8,57.2,64,29.80,10.0,South,17.3,26.5,N/A,,Clear,170,2013-09-28 04:12:00
11:33 PM,69.8,57.2,64,29.80,10.0,South,16.1,24.2,N/A,,Clear,170,2013-09-28 04:33:00
11:53 PM,69.8,57.2,64,29.80,10.0,South,19.6,27.6,N/A,,Clear,180,2013-09-28 04:53:00